Location: Arrington
(35.8681°N, 86.7092°W)
Time: 21:45:22
(UTC+00:00)

NOSS 2-2 (E) - Pass Details

Date: 23 November 2019
Orbit: 488 x 1718 km, 63.3° (Epoch: 29 November)

Event Time Altitude Azimuth Distance (km) Brightness Sun altitude
Rises 00:38:27 0° 225° (SW) 2,574 7.5 -24.6°
Reaches altitude 10° 00:40:38 10° 232° (SW) 1,670 6.5 -25.1°
Enters shadow 00:43:46 43° 289° (WNW) 705 4.2 -25.7°
